Location: Unspecified
(48.2082°N, 0.0000°E)
Time: 03:13:14
(UTC+00:00)

Altair - Pass Details

Date: 26 June 2019
Orbit: 1501 x 1683 km, 47.2° (Epoch: 21 July)

Event Time Altitude Azimuth Distance (km) Brightness Sun altitude
Rises 16:47:06 0° 190° (S) 4,646 10.1 29.6°
Reaches altitude 10° 16:50:56 10° 176° (S) 3,688 9.5 29.0°
Maximum altitude 16:57:37 23° 130° (SE) 2,871 8.7 27.9°
Drops below altitude 10° 17:04:27 10° 84° (E) 3,796 9.1 26.7°
Sets 17:08:26 0° 70° (ENE) 4,816 9.6 26.1°
